Flag for U.S.A. Weather past 2 weeks in Sandpoint, Idaho, U.S.A.

Now
86 °F

Sunny.


Feels Like: 83 °F
Forecast: 49 / 91 °F
Wind: 7 mph from South

Location: Sandpoint Airport

Current Time: Aug 3, 2015 at 12:49:26 PM

Latest Report: Aug 3, 2015 at 12:15 PM


Visibility: 10 mi

Pressure: 29.79 "Hg (27.73 "Hg at 636m altitude)

Humidity: 24%

Dew point: 45 °F

Location of SandpointLocation

Historic Weather in Sandpoint — Graph

°F

Sandpoint temperature yesterday

Maximum temperature yesterday: 90 °F (at 4:55 PM)
Minimum temperature yesterday: 46 °F (at 5:35 AM)
Average temperature yesterday: 68 °F

Past Weeks' High & Low Weather Summary

 TemperatureHumidityPressure
High97 °F (Jul 31, 3:35 PM)100% (Jul 26, 2:55 AM)30.24 "Hg (Jul 26, 2:55 AM)
Low41 °F (Jul 28, 5:15 AM)9% (Aug 1, 3:15 PM)29.71 "Hg (Jul 21, 7:55 PM)
Average66 °F48%29.97 "Hg
* Reported Jul 19 11:15 AM — Aug 3 11:55 AM, Sandpoint, Weather by CustomWeather, © 2015

Note: Actual official high and low records may vary slightly from our data, if they occured in-between our weather recording intervals... More about our weather records

Advertising

Sandpoint weather history for previous 24 hours

 ConditionsComfort  
Time TempWeatherWind HumidityBarometerVisibility
11:55 AM
Mon, Aug 3
84 °FSunny.6 mph25%29.79 "Hg10 mi
11:35 AM82 °FSunny.No wind26%29.80 "Hg10 mi
11:15 AM81 °FSunny.No wind28%29.80 "Hg7 mi
10:55 AM79 °FSunny.No wind28%29.81 "Hg10 mi
10:35 AM79 °FSunny.5 mph28%29.81 "Hg10 mi
10:15 AM79 °FSunny.3 mph30%29.82 "Hg10 mi
9:55 AM77 °FSunny.6 mph30%29.82 "Hg10 mi
9:35 AM73 °FSunny.No wind33%29.83 "Hg10 mi
9:15 AM72 °FSunny.3 mph36%29.83 "Hg7 mi
8:55 AM70 °FSunny.3 mph38%29.83 "Hg7 mi
8:35 AM68 °FSunny.No wind46%29.83 "Hg7 mi
8:15 AM66 °FSunny.No wind52%29.83 "Hg7 mi
7:55 AM63 °FSunny.No wind59%29.83 "Hg10 mi
7:35 AM61 °FSunny.No wind59%29.83 "Hg10 mi
7:15 AM55 °FSunny.No wind67%29.84 "Hg7 mi
6:55 AM54 °FSunny.No wind72%29.84 "Hg7 mi
6:35 AM52 °FSunny.No wind72%29.84 "Hg10 mi
6:15 AM50 °FClear.No wind71%29.84 "Hg10 mi
5:55 AM52 °FClear.No wind67%29.83 "Hg10 mi
5:35 AM52 °FClear.No wind67%29.83 "Hg10 mi
5:15 AM52 °FClear.No wind67%29.83 "Hg10 mi
4:55 AM52 °FClear.No wind67%29.83 "Hg10 mi
4:35 AM52 °FClear.No wind67%29.83 "Hg10 mi
4:15 AM54 °FClear.No wind63%29.82 "Hg10 mi
3:55 AM54 °FClear.No wind63%29.82 "Hg10 mi
3:35 AM54 °FClear.No wind63%29.82 "Hg10 mi
3:15 AM54 °FClear.No wind63%29.82 "Hg10 mi
2:35 AM54 °FClear.3 mph63%29.82 "Hg10 mi
2:15 AM55 °FClear.No wind59%29.82 "Hg10 mi
1:55 AM54 °FClear.No wind63%29.81 "Hg10 mi
1:35 AM55 °FClear.No wind59%29.82 "Hg10 mi
1:15 AM55 °FClear.No wind59%29.83 "Hg10 mi
12:55 AM59 °FClear.No wind51%29.83 "Hg10 mi
12:35 AM57 °FClear.No wind51%29.83 "Hg10 mi
12:15 AM59 °FClear.No wind51%29.83 "Hg10 mi
11:55 PM
Sun, Aug 2
57 °FClear.No wind55%29.83 "Hg10 mi
11:35 PM61 °FClear.No wind45%29.83 "Hg10 mi
11:15 PM61 °FClear.No wind48%29.83 "Hg10 mi
10:55 PM61 °FClear.No wind48%29.83 "Hg10 mi
10:35 PM63 °FClear.No wind42%29.83 "Hg10 mi
10:15 PM63 °FClear.No wind52%29.83 "Hg10 mi
9:55 PM63 °FClear.No wind49%29.83 "Hg10 mi
9:15 PM66 °FSunny.No wind46%29.83 "Hg7 mi
8:55 PM70 °FSunny.No wind40%29.83 "Hg7 mi
8:35 PM70 °FSunny.No wind43%29.82 "Hg7 mi
8:15 PM73 °FSunny.No wind36%29.82 "Hg7 mi
7:55 PM77 °FSunny.No wind34%29.82 "Hg7 mi
7:35 PM79 °FSunny.No wind32%29.82 "Hg7 mi
7:15 PM82 °FSunny.No wind26%29.81 "Hg5 mi
6:55 PM86 °FSunny.No wind20%29.81 "Hg5 mi
6:35 PM90 °FSunny.No wind14%29.81 "Hg5 mi
6:15 PM90 °FSunny.5 mph14%29.82 "Hg5 mi
5:55 PM90 °FSunny.No wind14%29.83 "Hg5 mi
5:35 PM90 °FSunny.No wind16%29.83 "Hg7 mi
5:15 PM90 °FSunny.No wind16%29.84 "Hg10 mi
4:55 PM90 °FSunny.No wind17%29.84 "Hg10 mi
4:35 PM88 °FSunny.No wind17%29.85 "Hg10 mi
4:15 PM88 °FSunny.No wind19%29.86 "Hg10 mi
3:55 PM88 °FSunny.3 mph19%29.86 "Hg10 mi
3:15 PM86 °FSunny.7 mph25%29.87 "Hg10 mi
2:55 PM88 °FSunny.5 mph22%29.88 "Hg10 mi
2:35 PM86 °FSunny.9 mph24%29.88 "Hg10 mi
1:55 PM88 °FSunny.6 mph22%29.90 "Hg10 mi
1:35 PM86 °FSunny.8 mph24%29.90 "Hg10 mi
1:15 PM86 °FSunny.6 mph20%29.91 "Hg10 mi
12:55 PM86 °FSunny.6 mph22%29.91 "Hg10 mi
12:35 PM82 °FSunny.No wind23%29.92 "Hg10 mi
12:15 PM81 °FSunny.3 mph26%29.93 "Hg10 mi
Weather by CustomWeather, © 2015

See weather overviewHow to use our weather pages